Wind_Speed
32 30 25 24 24 18 24 30 32 34 35 36 39 39 40 39 37 38 39 44 47 48 50 47 41 35 35 36 39 38 34 32
27 22 26 27 35 33 28 36 37 39 42 42 42 42 43 44 45 46 48 51 51 49 44 42 43 39 36 37 38 40 37 32
25 24 22 23 26 31 35 42 44 45 44 43 41 41 41 41 43 44 45 46 49 50 49 49 48 45 42 41 42 42 39 37
26 24 23 24 28 32 37 41 42 41 39 38 39 40 40 41 44 46 49 51 52 52 52 51 49 47 44 40 41 42 41 39
24 24 26 28 32 34 34 36 37 38 38 38 40 42 45 47 48 49 50 52 53 55 55 54 53 52 48 45 43 42 43 40
25 28 29 27 28 28 28 29 32 36 42 46 49 49 48 46 45 46 46 48 51 53 55 57 57 56 55 53 49 47 45 45
28 27 26 27 25 27 31 36 40 44 47 48 46 43 41 40 40 41 41 42 44 44 45 47 50 54 55 56 55 52 49 47
24 23 22 24 28 31 34 38 42 44 44 42 40 41 40 38 39 43 48 50 50 51 50 50 51 53 53 53 53 56 55 54
22 23 26 28 31 32 34 37 40 40 41 40 37 38 42 44 50 49 53 54 53 52 52 51 52 53 55 58 57 53 52 56
22 28 30 30 30 30 33 36 40 39 41 41 45 49 52 55 58 56 52 50 49 48 48 48 48 48 49 52 55 57 55 51
27 28 30 29 31 34 37 38 40 43 43 46 50 53 59 60 53 50 50 49 47 46 46 46 44 44 43 42 44 50 54 53
29 30 34 35 38 38 37 36 40 45 46 49 52 54 55 54 55 50 49 48 47 48 47 45 45 45 44 43 41 39 45 47
30 32 36 39 38 36 37 37 41 46 47 52 58 56 50 55 53 49 47 47 46 45 45 45 45 45 44 41 43 41 38 41
32 35 40 40 34 34 35 40 43 46 54 61 60 52 54 55 55 53 52 51 49 45 42 42 41 40 41 40 38 40 38 37
33 38 42 33 33 31 38 44 46 54 60 63 52 46 48 47 45 43 41 44 46 43 38 35 33 31 32 33 34 34 38 35
35 40 38 33 30 34 43 47 51 57 61 58 46 46 48 52 51 44 42 40 36 33 35 34 35 34 30 32 32 32 37 39
35 41 40 34 31 36 47 49 54 58 61 52 46 47 52 58 54 46 40 37 34 27 22 30 33 33 31 29 32 29 33 36
35 41 45 41 40 40 45 48 54 58 59 52 44 45 50 56 56 49 41 36 30 28 23 13 20 30 35 32 32 32 33 36
36 41 47 41 39 42 46 50 55 59 58 53 48 50 50 51 55 47 45 37 30 25 23 15 3 15 26 32 33 34 33 39
Wind_Direction
314 316 313 310 300 297 297 295 287 285 280 281 282 286 290 290 284 280 283 286 286 283 282 279 273 268 267 272 274 273 276 276
312 302 300 308 324 278 292 294 298 292 285 286 289 292 290 287 286 284 281 282 283 280 279 277 275 270 265 265 269 272 274 273
301 305 306 302 294 295 294 291 293 293 294 296 293 290 288 286 284 284 283 282 280 280 279 279 276 274 270 265 263 266 269 270
308 313 311 305 303 300 293 289 289 293 292 290 288 288 287 284 281 280 278 278 278 279 277 276 275 274 272 267 264 263 264 265
306 306 306 308 306 303 301 299 296 292 292 293 293 292 292 292 291 288 286 285 283 282 279 277 276 273 269 265 261 259 260 258
307 307 311 307 299 297 297 296 300 304 305 303 302 302 301 296 292 288 285 281 279 277 277 276 274 270 269 266 260 256 253 253
311 313 313 313 313 317 321 318 311 307 308 310 308 306 304 302 299 297 293 290 286 282 279 276 273 271 268 264 261 256 250 249
327 324 328 331 332 329 323 313 312 313 312 310 309 306 304 302 298 296 292 288 284 281 278 273 271 270 268 265 260 255 252 244
346 349 342 336 333 329 322 318 318 317 312 309 306 301 299 299 303 297 288 284 283 280 278 275 272 268 264 262 261 258 250 245
352 345 337 338 339 334 323 322 324 324 318 311 309 307 303 303 305 299 292 286 282 279 275 272 269 267 264 260 256 255 252 246
343 339 348 349 346 340 332 333 334 331 324 319 313 305 304 311 307 298 292 287 282 277 275 272 267 262 259 257 255 249 247 243
348 2 355 353 350 343 336 335 336 332 330 324 318 317 317 312 304 299 295 291 287 283 279 273 268 263 257 254 251 250 243 235
5 2 358 355 350 341 345 342 336 333 332 333 331 330 316 308 310 307 300 294 287 280 274 269 265 260 254 249 246 244 241 233
5 2 358 356 346 350 352 347 342 341 341 338 341 332 323 322 317 312 305 298 291 283 276 269 262 258 250 244 242 236 232 229
5 1 1 354 350 355 353 349 348 348 344 345 346 350 346 340 337 333 331 312 292 282 272 260 252 254 244 240 234 229 222 221
2 1 5 359 1 360 357 353 354 353 349 353 356 352 345 346 342 339 336 337 332 295 274 259 247 244 242 238 226 225 219 212
3 6 8 3 356 356 358 358 360 357 355 1 359 356 355 352 353 348 342 341 344 341 303 264 249 237 231 230 218 215 212 209
5 6 9 3 358 1 357 2 5 2 3 4 1 354 348 350 355 355 352 349 345 348 349 314 244 230 222 221 211 206 202 197
9 7 10 12 14 11 9 11 11 7 10 9 5 5 360 356 355 358 356 357 355 350 359 356 281 212 208 209 204 200 197 191
Height
5735 5729 5726 5724 5722 5717 5714 5712 5708 5704 5701 5697 5693 5690 5686 5683 5680 5677 5674 5671 5669 5668 5669 5668 5667 5666 5664 5662 5662 5663 5664 5663
5729 5726 5721 5717 5713 5709 5706 5703 5701 5697 5694 5689 5684 5681 5676 5673 5669 5665 5662 5659 5657 5655 5654 5653 5653 5653 5653 5652 5651 5651 5652 5653
5723 5720 5715 5712 5709 5706 5701 5697 5692 5687 5683 5677 5673 5669 5665 5662 5658 5654 5650 5646 5644 5642 5641 5638 5637 5638 5640 5641 5640 5639 5641 5641
5717 5713 5710 5707 5704 5700 5694 5688 5683 5678 5673 5669 5664 5659 5655 5651 5646 5642 5637 5632 5628 5625 5624 5622 5622 5622 5624 5626 5626 5627 5628 5630
5716 5712 5707 5702 5697 5692 5685 5680 5675 5670 5664 5659 5653 5647 5642 5637 5632 5627 5622 5617 5612 5607 5604 5604 5603 5603 5606 5609 5611 5613 5615 5618
5711 5706 5700 5695 5690 5685 5680 5674 5668 5660 5652 5645 5639 5633 5627 5621 5616 5611 5606 5601 5596 5592 5590 5586 5585 5586 5586 5590 5595 5598 5602 5605
5703 5698 5692 5688 5683 5677 5671 5664 5656 5648 5642 5634 5626 5620 5613 5607 5602 5597 5592 5587 5582 5578 5575 5571 5569 5568 5569 5571 5574 5580 5586 5590
5697 5693 5688 5683 5677 5671 5664 5656 5648 5640 5632 5624 5617 5610 5603 5597 5591 5585 5579 5572 5566 5561 5558 5555 5553 5552 5551 5552 5556 5560 5566 5572
5695 5690 5685 5679 5672 5665 5657 5648 5640 5632 5624 5616 5608 5600 5592 5584 5576 5569 5562 5554 5548 5542 5539 5536 5534 5533 5533 5534 5536 5541 5547 5553
5694 5688 5681 5674 5666 5658 5649 5642 5633 5624 5616 5608 5599 5589 5579 5568 5558 5549 5542 5534 5529 5524 5520 5517 5515 5514 5514 5516 5518 5522 5527 5535
5691 5684 5676 5668 5660 5652 5643 5635 5627 5618 5608 5599 5588 5576 5564 5552 5541 5531 5522 5515 5509 5505 5501 5498 5497 5496 5497 5499 5501 5504 5509 5517
5688 5681 5673 5665 5656 5647 5639 5631 5622 5612 5600 5588 5576 5562 5548 5535 5522 5512 5503 5496 5490 5485 5481 5479 5478 5478 5479 5482 5485 5488 5493 5499
5686 5678 5671 5662 5653 5644 5635 5626 5616 5604 5591 5578 5562 5546 5531 5516 5503 5492 5483 5475 5468 5464 5460 5459 5458 5458 5461 5465 5470 5474 5479 5485
5685 5677 5669 5660 5650 5641 5632 5622 5610 5597 5582 5567 5549 5532 5517 5503 5489 5476 5464 5455 5448 5442 5439 5438 5439 5440 5443 5448 5454 5460 5466 5473
5684 5677 5667 5657 5647 5639 5629 5618 5604 5591 5575 5557 5539 5523 5509 5495 5479 5464 5450 5436 5426 5421 5419 5420 5423 5426 5429 5434 5440 5446 5454 5461
5684 5676 5665 5655 5646 5638 5627 5613 5600 5585 5568 5550 5533 5519 5504 5488 5470 5454 5439 5425 5410 5401 5400 5401 5405 5411 5416 5422 5428 5435 5443 5452
5684 5675 5664 5654 5645 5635 5624 5611 5597 5581 5563 5544 5529 5514 5499 5482 5464 5446 5431 5418 5405 5393 5385 5384 5388 5395 5403 5410 5418 5426 5434 5444
5684 5674 5663 5653 5643 5633 5623 5610 5595 5578 5560 5541 5525 5511 5495 5478 5460 5442 5427 5413 5401 5390 5380 5373 5373 5380 5389 5399 5409 5419 5429 5439
5684 5674 5663 5653 5643 5634 5623 5609 5593 5578 5560 5541 5524 5509 5492 5475 5457 5440 5424 5410 5398 5388 5379 5371 5368 5371 5379 5390 5401 5413 5424 5435